User: anonymous   Login
Location: Beaurevoir
(49.9971°N, 3.3085°E)
Time: 23:41:15
(UTC+00:00)
Language:

Aureole 3 - Orbit

View from above orbital plane
View from above orbital plane
View from above satellite
View from above satellite

Ground track
Ground track

The orbit data is extracted from the following two-line orbital elements,

1 12848U 81094A   24204.55188506  .00007682  00000-0  40757-3 0  9994
2 12848  82.4752 193.7664 0523336 222.8426 133.0867 14.42257609159471
Epoch (UTC): 22 July 2024 13:14:42
Eccentricity: 0.0523336
inclination: 82.4752°
perigee height: 378 km
apogee height: 1124 km
right ascension of ascending node: 193.7664°
argument of perigee: 222.8426°
revolutions per day: 14.42257609
mean anomaly at epoch: 133.0867°
orbit number at epoch: 15947

The dashed part of the orbit path shows where the satellite is in the earth's shadow,  

DLR